FW6629 Weather Reports


Display with metric or nautical units.
time (UTC)temp
F
wind
direction
speed
MPH
gust
MPH
rain 1hr
in
rain 24hr
in
rain mn
in
humidity
%
barometer
mb
20260507165520 63 24 6.0 12.0 0.00 1.74 0.41 68 1014.2
20260507165023 64 41 4.0 14.0 0.00 1.74 0.41 73 1014.2
20260507164557 63 34 5.0 14.0 0.00 1.74 0.41 70 1014.1
20260507164022 63 346 6.0 14.0 0.00 1.74 0.41 73 1014.1
20260507163522 63 339 1.0 9.0 0.00 1.74 0.41 76 1014.0
20260507163042 62 358 3.0 8.0 0.00 1.74 0.41 75 1014.0
20260507162520 62 6 1.0 6.0 0.00 1.74 0.41 76 1013.9
20260507162024 61 41 2.0 6.0 0.00 1.74 0.41 76 1013.8
20260507161540 60 355 1.0 7.0 0.00 1.74 0.41 79 1013.9
20260507161019 60 6 2.0 7.0 0.00 1.74 0.41 79 1014.1
20260507160526 60 13 1.0 7.0 0.00 1.74 0.41 79 1014.2
20260507160037 59 354 2.0 7.0 0.00 1.74 0.41 79 1014.2
20260507155524 59 5 1.0 5.0 0.00 1.74 0.41 80 1014.3
20260507155023 58 27 1.0 11.0 0.00 1.74 0.41 81 1014.3
20260507154540 58 32 4.0 11.0 0.00 1.74 0.41 79 1014.3
20260507154024 58 341 3.0 13.0 0.00 1.74 0.41 79 1014.4
20260507153521 58 13 4.0 13.0 0.00 1.74 0.41 79 1014.2
20260507153038 58 28 5.0 12.0 0.00 1.74 0.41 79 1014.3
20260507152523 58 7 6.0 13.0 0.00 1.74 0.41 80 1014.2
20260507152024 58 2 4.0 13.0 0.00 1.74 0.41 80 1014.1
20260507151543 58 351 5.0 13.0 0.00 1.74 0.41 81 1013.8
20260507151023 58 353 5.0 12.0 0.00 1.74 0.41 82 1013.7
20260507150523 58 5 4.0 11.0 0.00 1.74 0.41 83 1013.6
20260507150041 58 338 5.0 13.0 0.00 1.74 0.41 83 1013.6
20260507145523 58 6 3.0 13.0 0.00 2.27 0.41 84 1013.7
20260507145023 58 356 7.0 13.0 0.00 2.27 0.41 85 1013.7
20260507144540 58 8 4.0 11.0 0.00 2.27 0.41 86 1013.6
20260507144024 58 15 5.0 11.0 0.00 2.27 0.41 86 1013.6
20260507143524 58 358 2.0 8.0 0.00 2.27 0.41 87 1013.7
20260507143056 58 354 4.0 8.0 0.00 2.27 0.41 88 1013.7
20260507142524 58 10 2.0 8.0 0.00 2.27 0.41 88 1013.7
20260507142023 57 358 1.0 7.0 0.00 2.27 0.41 88 1013.6
20260507141604 57 19 2.0 9.0 0.00 2.27 0.41 89 1013.5
20260507141024 57 352 1.0 9.0 0.00 2.27 0.41 90 1013.6
20260507140524 57 348 1.0 7.0 0.00 2.27 0.41 90 1013.4
20260507140046 57 43 1.0 6.0 0.00 2.27 0.41 91 1013.6
20260507135523 57 42 1.0 9.0 0.00 2.31 0.41 91 1013.5
20260507135023 57 355 2.0 9.0 0.00 2.31 0.41 91 1013.5
20260507134544 57 324 2.0 5.0 0.00 2.31 0.41 91 1013.5
20260507134024 57 8 1.0 4.0 0.00 2.31 0.41 91 1013.4
20260507133525 57 341 0.0 4.0 0.00 2.31 0.41 91 1013.5
20260507133042 57 17 1.0 6.0 0.00 2.31 0.41 91 1013.4
20260507132521 57 338 2.0 8.0 0.00 2.31 0.41 91 1013.3
20260507132021 57 3 3.0 8.0 0.00 2.31 0.41 91 1013.5
20260507131546 57 9 3.0 7.0 0.00 2.31 0.41 91 1013.3
20260507131028 57 348 1.0 9.0 0.00 2.31 0.41 91 1012.9
20260507130524 57 352 3.0 9.0 0.00 2.31 0.41 91 1012.8
20260507130042 57 317 3.0 7.0 0.00 2.31 0.41 91 1013.0
20260507125524 57 33 1.0 6.0 0.00 2.31 0.41 91 1012.9
20260507125025 57 7 0.0 3.0 0.00 2.31 0.41 92 1012.8
20260507124537 57 344 1.0 3.0 0.01 2.31 0.41 92 1012.7
20260507124023 57 17 1.0 6.0 0.01 2.31 0.41 92 1012.3
20260507123523 57 40 2.0 6.0 0.01 2.31 0.41 92 1012.6
20260507123037 57 42 1.0 8.0 0.01 2.31 0.41 92 1012.6
20260507122524 57 53 3.0 8.0 0.01 2.31 0.41 92 1012.1
20260507122023 57 31 2.0 7.0 0.01 2.31 0.41 92 1012.2
20260507121545 57 355 2.0 7.0 0.01 2.31 0.41 92 1012.4
20260507121024 57 96 2.0 6.0 0.01 2.31 0.41 92 1012.4
20260507120526 57 76 1.0 5.0 0.01 2.31 0.41 92 1012.4
20260507120041 57 75 1.0 6.0 0.01 2.31 0.41 92 1012.3
20260507115524 57 24 2.0 6.0 0.01 2.31 0.41 92 1012.2
20260507115023 57 65 2.0 6.0 0.02 2.31 0.41 92 1012.0
20260507114541 58 86 1.0 5.0 0.02 2.30 0.40 92 1012.2
20260507114023 58 5 0.0 2.0 0.03 2.30 0.40 92 1012.4
20260507113528 58 12 0.0 2.0 0.03 2.30 0.40 92 1012.5
20260507113037 58 76 0.0 3.0 0.03 2.30 0.40 92 1012.4
20260507112524 58 79 0.0 6.0 0.03 2.30 0.40 92 1012.4
20260507112024 58 23 3.0 9.0 0.03 2.30 0.40 92 1012.0
20260507111547 58 5 1.0 9.0 0.04 2.30 0.40 92 1011.8
20260507111023 58 350 3.0 9.0 0.04 2.30 0.40 92 1011.8
20260507110523 58 7 2.0 6.0 0.05 2.30 0.40 92 1011.7
20260507110049 58 356 2.0 7.0 0.05 2.30 0.40 92 1011.6
20260507105523 58 16 3.0 7.0 0.06 2.30 0.40 92 1011.7
20260507105023 58 48 1.0 5.0 0.05 2.29 0.39 92 1011.0
20260507104544 59 90 0.0 3.0 0.04 2.28 0.38 92 1011.3
20260507104022 59 0 0.0 5.0 0.03 2.27 0.37 92 1011.8
20260507103524 59 5 2.0 5.0 0.04 2.27 0.37 92 1011.6
20260507103042 59 13 1.0 5.0 0.06 2.27 0.37 92 1011.2
20260507102523 59 50 1.0 5.0 0.08 2.27 0.37 92 1010.8
20260507102024 59 6 1.0 3.0 0.10 2.27 0.37 92 1011.0
20260507101541 59 85 0.0 2.0 0.12 2.26 0.36 92 1010.9
20260507101023 59 0 1.0 2.0 0.14 2.26 0.36 92 1011.1
20260507100523 59 19 0.0 2.0 0.17 2.25 0.35 92 1011.4
20260507100046 59 0 0.0 3.0 0.16 2.24 0.34 92 1011.4
20260507095526 59 358 1.0 3.0 0.16 2.24 0.34 92 1011.3
20260507095021 60 33 1.0 3.0 0.16 2.24 0.34 92 1011.3
20260507094548 60 74 0.0 2.0 0.17 2.24 0.34 92 1011.4
20260507094023 60 15 0.0 4.0 0.17 2.24 0.34 92 1011.7
20260507093523 60 0 0.0 4.0 0.18 2.23 0.33 92 1011.5
20260507093046 60 40 0.0 2.0 0.20 2.20 0.30 92 1011.8
20260507092523 60 0 0.0 4.0 0.19 2.18 0.28 92 1011.9
20260507092027 60 13 1.0 4.0 0.17 2.16 0.26 92 1011.9
20260507091543 60 1 2.0 4.0 0.15 2.14 0.24 92 1012.1
20260507091023 60 354 2.0 4.0 0.12 2.10 0.21 92 1011.9
20260507090526 60 354 1.0 3.0 0.09 2.08 0.18 92 1012.0
20260507090050 61 338 1.0 4.0 0.09 2.08 0.18 92 1011.3
20260507085523 61 53 1.0 4.0 0.09 2.08 0.18 92 1010.7
20260507085023 61 355 1.0 6.0 0.09 2.08 0.18 92 1010.6
20260507084549 61 6 2.0 6.0 0.08 2.07 0.17 92 1010.8
20260507084025 61 67 1.0 11.0 0.08 2.07 0.17 92 1010.8
20260507083524 62 5 4.0 16.0 0.05 2.04 0.14 92 1011.1
20260507083041 62 332 8.0 16.0 0.01 2.00 0.10 92 1012.8
20260507082521 63 23 3.0 7.0 0.00 1.99 0.09 92 1011.5
20260507082024 63 341 2.0 3.0 0.00 1.99 0.09 92 1011.0
20260507081541 62 355 1.0 2.0 0.00 1.99 0.09 92 1011.0
20260507081024 62 0 0.0 2.0 0.00 1.99 0.09 92 1011.0
20260507080526 62 0 0.0 2.0 0.00 1.99 0.09 92 1011.0
20260507080038 62 0 0.0 2.0 0.00 1.99 0.09 92 1011.1
20260507075523 62 0 0.0 2.0 0.00 1.99 0.09 92 1011.0
20260507075024 62 0 0.0 2.0 0.00 1.99 0.09 92 1011.4
20260507074544 62 140 0.0 2.0 0.00 1.99 0.09 92 1011.3
20260507074023 62 355 0.0 0.0 0.00 1.99 0.09 92 1011.1
20260507073524 62 0 0.0 1.0 0.00 1.99 0.09 92 1011.1
20260507073043 62 0 0.0 2.0 0.00 1.99 0.09 92 1011.0
20260507072526 62 355 1.0 2.0 0.00 1.99 0.09 92 1010.9
20260507072023 62 0 0.0 2.0 0.00 1.99 0.09 92 1010.9
20260507071541 62 83 1.0 2.0 0.00 1.99 0.09 92 1010.7
20260507071029 62 94 1.0 2.0 0.00 1.99 0.09 92 1010.3
20260507070524 62 115 0.0 2.0 0.00 1.99 0.09 92 1010.8
20260507070044 63 28 0.0 2.0 0.00 1.99 0.09 92 1011.0
20260507065523 62 356 0.0 2.0 0.00 1.99 0.09 92 1011.2
20260507065023 62 356 0.0 2.0 0.00 1.99 0.09 92 1011.5
20260507064604 62 0 0.0 1.0 0.00 1.99 0.09 92 1011.5
20260507064022 62 0 0.0 1.0 0.00 1.99 0.09 92 1011.4
20260507063522 63 0 0.0 2.0 0.00 1.99 0.09 92 1011.4
20260507063052 63 0 0.0 2.0 0.00 1.99 0.09 92 1011.4
20260507062525 63 350 1.0 2.0 0.00 1.99 0.09 92 1011.5
20260507062023 63 0 0.0 2.0 0.00 1.99 0.09 92 1011.5
20260507061547 63 0 0.0 2.0 0.00 1.99 0.09 92 1011.4
20260507061024 63 0 0.0 2.0 0.00 1.99 0.09 92 1011.8
20260507060524 63 355 0.0 1.0 0.00 1.99 0.09 92 1011.8
20260507060051 63 351 1.0 2.0 0.00 1.99 0.09 92 1011.8
20260507055523 63 0 0.0 2.0 0.00 1.99 0.09 92 1012.0
20260507055025 63 298 1.0 3.0 0.00 1.99 0.09 92 1012.2
20260507054548 63 197 1.0 3.0 0.00 1.99 0.09 92 1012.1
20260507054024 63 181 1.0 2.0 0.00 1.99 0.09 92 1011.8
20260507053524 63 283 1.0 5.0 0.00 1.99 0.09 92 1011.5
20260507053042 63 214 1.0 6.0 0.03 1.99 0.09 92 1011.1
20260507052524 63 205 3.0 6.0 0.06 1.99 0.09 92 1011.2
20260507052024 63 150 2.0 4.0 0.07 1.99 0.09 92 1011.4
20260507051558 63 154 1.0 3.0 0.08 1.99 0.09 92 1011.4
20260507051024 63 160 1.0 3.0 0.09 1.99 0.09 92 1011.2
20260507050525 63 160 1.0 3.0 0.09 1.99 0.09 92 1011.3
20260507050046 63 178 0.0 4.0 0.09 1.99 0.09 92 1011.1
20260507045525 64 108 2.0 4.0 0.09 1.99 0.09 92 1011.3
20260507045027 64 133 2.0 4.0 0.09 1.99 0.09 92 1011.5
20260507044541 64 112 1.0 3.0 0.10 1.99 0.09 92 1011.7
20260507044021 64 117 0.0 3.0 0.10 1.99 0.09 92 1012.1
20260507043523 64 111 1.0 3.0 0.09 1.98 0.08 92 1012.1
20260507043043 64 158 1.0 2.0 0.07 1.95 0.05 92 1012.5
20260507042523 64 179 0.0 2.0 0.05 1.93 0.03 92 1012.7
20260507042024 64 322 0.0 2.0 0.03 1.91 0.01 92 1012.3
20260507041541 64 179 0.0 2.0 0.03 1.91 0.01 92 1012.3
20260507041027 64 275 0.0 3.0 0.02 1.90 0.00 92 1012.5
20260507040523 64 0 0.0 3.0 0.03 1.90 0.00 92 1012.1
20260507040049 64 126 2.0 5.0 0.03 1.90 0.00 92 1011.7
20260507035523 64 93 2.0 5.0 0.04 1.90 1.90 92 1011.8
20260507035024 64 120 1.0 2.0 0.07 1.90 1.90 92 1012.0
20260507034548 64 323 0.0 2.0 0.08 1.89 1.89 92 1012.6
20260507034024 64 342 0.0 2.0 0.08 1.89 1.89 92 1012.7
20260507033526 64 306 0.0 3.0 0.07 1.88 1.88 92 1012.7
20260507033037 64 98 1.0 3.0 0.07 1.88 1.88 92 1012.4
20260507032524 64 131 1.0 3.0 0.07 1.88 1.88 92 1012.6
20260507032024 64 140 2.0 3.0 0.07 1.88 1.88 92 1012.2
20260507031545 64 107 1.0 5.0 0.07 1.88 1.88 92 1012.2
20260507031023 64 112 1.0 5.0 0.06 1.87 1.87 92 1012.2
20260507030523 64 135 3.0 5.0 0.06 1.87 1.87 92 1012.3
20260507030040 64 125 2.0 4.0 0.06 1.87 1.87 92 1012.6
20260507025525 64 123 2.0 3.0 0.04 1.85 1.85 92 1012.6
20260507025024 64 308 1.0 2.0 0.02 1.83 1.83 92 1013.1
20260507024538 64 303 0.0 2.0 0.00 1.81 1.81 92 1013.2
20260507024024 64 341 1.0 2.0 0.00 1.81 1.81 92 1012.8
20260507023524 64 0 0.0 2.0 0.00 1.81 1.81 91 1012.6
20260507023042 64 0 0.0 1.0 0.00 1.81 1.81 91 1012.2
20260507022523 64 180 0.0 1.0 0.00 1.81 1.81 91 1012.2
20260507022024 64 131 1.0 1.0 0.00 1.81 1.81 91 1012.3
20260507021541 64 133 0.0 2.0 0.00 1.81 1.81 91 1012.3
20260507021023 64 0 0.0 3.0 0.00 1.81 1.81 91 1012.3
20260507020523 64 0 1.0 3.0 0.00 1.81 1.81 91 1012.5
20260507020100 64 131 1.0 3.0 0.00 1.81 1.81 91 1012.5
20260507015523 64 102 1.0 2.0 0.00 1.81 1.81 91 1012.4
20260507015027 64 349 0.0 2.0 0.00 1.81 1.81 91 1012.3
20260507014546 64 0 0.0 2.0 0.00 1.81 1.81 91 1012.5
20260507014023 64 0 0.0 2.0 0.00 1.81 1.81 91 1012.7
20260507013522 64 0 0.0 2.0 0.00 1.81 1.81 91 1012.8
20260507013037 64 0 0.0 2.0 0.00 1.81 1.81 91 1012.9
20260507012524 64 0 0.0 2.0 0.01 1.81 1.81 91 1012.8
20260507012024 64 344 1.0 2.0 0.01 1.81 1.81 91 1012.9
20260507011540 64 0 1.0 2.0 0.01 1.81 1.81 91 1012.8
20260507011023 64 317 1.0 2.0 0.01 1.81 1.81 91 1012.6
20260507010522 64 2 1.0 2.0 0.02 1.81 1.81 91 1012.4
20260507010056 64 0 0.0 2.0 0.03 1.81 1.81 91 1012.3
20260507005523 64 129 1.0 2.0 0.03 1.81 1.81 91 1012.2
20260507005024 64 106 0.0 2.0 0.03 1.81 1.81 91 1012.2
20260507004537 64 90 0.0 2.0 0.04 1.81 1.81 91 1012.2
20260507004023 64 0 0.0 2.0 0.05 1.81 1.81 91 1012.3
20260507003524 64 105 0.0 4.0 0.07 1.81 1.81 91 1012.4
20260507003041 64 102 1.0 4.0 0.11 1.81 1.81 91 1012.1
20260507002521 64 117 2.0 5.0 0.11 1.80 1.80 91 1012.2
20260507002023 64 139 2.0 5.0 0.13 1.80 1.80 91 1012.3
20260507001541 64 123 3.0 5.0 0.18 1.80 1.80 91 1012.2
20260507001022 64 124 0.0 3.0 0.24 1.80 1.80 91 1012.3
20260507000523 64 95 1.0 3.0 0.34 1.78 1.78 91 1012.5
20260507000041 64 169 0.0 2.0 0.35 1.78 1.78 91 1013.2
20260506235523 65 302 0.0 4.0 0.40 1.78 1.78 91 1013.4
20260506235023 65 319 1.0 4.0 0.56 1.78 1.78 91 1013.0
20260506234537 65 132 1.0 4.0 0.57 1.77 1.77 91 1012.6
20260506234023 65 0 1.0 2.0 0.56 1.76 1.76 91 1012.4
20260506233521 65 112 0.0 2.0 0.55 1.74 1.74 91 1012.4
20260506233037 65 0 0.0 3.0 0.52 1.70 1.70 90 1012.5
20260506232520 65 107 0.0 3.0 0.51 1.69 1.69 90 1012.8
20260506232027 65 159 1.0 3.0 0.51 1.67 1.67 91 1012.8
20260506231546 65 108 0.0 3.0 0.50 1.60 1.60 91 1012.9
20260506231024 65 0 0.0 4.0 0.47 1.55 1.55 91 1012.7
20260506230521 65 123 1.0 4.0 0.36 1.44 1.44 90 1012.8
20260506230103 65 139 2.0 3.0 0.35 1.42 1.42 90 1012.2
20260506225523 65 58 0.0 3.0 0.30 1.37 1.37 90 1012.3
20260506225023 66 157 1.0 3.0 0.14 1.21 1.21 90 1012.8
20260506224541 66 124 0.0 2.0 0.13 1.20 1.20 90 1011.9
20260506224026 66 0 0.0 2.0 0.13 1.20 1.20 90 1012.0
20260506223523 66 0 0.0 3.0 0.12 1.19 1.19 90 1011.9
20260506223040 66 0 0.0 3.0 0.11 1.17 1.17 90 1012.1
20260506222524 66 113 2.0 3.0 0.11 1.17 1.17 90 1011.8
20260506222024 66 127 2.0 3.0 0.09 1.16 1.16 90 1012.0
20260506221542 66 256 0.0 2.0 0.02 1.09 1.09 90 1012.2
20260506221023 66 117 0.0 2.0 0.01 1.08 1.08 90 1011.9
20260506220523 66 126 1.0 2.0 0.01 1.08 1.08 90 1011.6
20260506220040 66 0 0.0 2.0 0.00 1.07 1.07 90 1011.3
20260506215526 66 0 0.0 2.0 0.00 1.07 1.07 90 1011.7
20260506215020 66 105 1.0 5.0 0.00 1.07 1.07 90 1011.6
20260506214539 66 78 2.0 5.0 0.00 1.07 1.07 90 1011.4
20260506214020 66 95 2.0 3.0 0.00 1.07 1.07 90 1011.5
20260506213524 66 0 0.0 2.0 0.01 1.07 1.07 90 1011.4
20260506213055 66 98 1.0 2.0 0.01 1.07 1.07 90 1011.6
20260506212524 66 121 0.0 3.0 0.01 1.07 1.07 90 1011.2
20260506212025 66 78 1.0 3.0 0.01 1.07 1.07 90 1011.2
20260506211541 66 90 2.0 2.0 0.01 1.07 1.07 90 1011.3
20260506211021 66 352 0.0 2.0 0.02 1.07 1.07 90 1011.5
20260506210523 66 352 1.0 3.0 0.04 1.07 1.07 90 1011.5
20260506210052 66 319 1.0 3.0 0.04 1.07 1.07 89 1011.9
20260506205523 66 333 1.0 4.0 0.04 1.07 1.07 89 1011.7
20260506205023 66 200 2.0 6.0 0.04 1.07 1.07 89 1011.8
20260506204540 66 138 2.0 6.0 0.04 1.07 1.07 89 1012.1
20260506204023 66 127 2.0 4.0 0.04 1.07 1.07 89 1012.3
20260506203524 66 153 1.0 4.0 0.03 1.05 1.05 89 1012.4
20260506203037 66 112 2.0 4.0 0.04 1.05 1.05 89 1012.3
20260506202523 66 94 2.0 4.0 0.05 1.05 1.05 89 1012.4
20260506202023 66 171 1.0 5.0 0.05 1.05 1.05 89 1012.5
20260506201548 66 231 1.0 5.0 0.05 1.05 1.05 89 1012.6
20260506201024 67 224 2.0 8.0 0.04 1.04 1.04 89 1012.7
20260506200523 67 202 2.0 8.0 0.03 1.03 1.03 89 1013.0
20260506200042 67 191 3.0 6.0 0.03 1.03 1.03 89 1012.6
20260506195523 67 233 2.0 5.0 0.06 1.03 1.03 89 1012.5
20260506195020 67 172 1.0 8.0 0.08 1.03 1.03 89 1012.5
20260506194541 68 219 3.0 8.0 0.10 1.03 1.03 89 1012.7
20260506194027 68 178 4.0 8.0 0.11 1.03 1.03 89 1012.5
20260506193523 68 165 2.0 8.0 0.18 1.03 1.03 90 1012.5
20260506193041 68 150 3.0 8.0 0.32 1.02 1.02 90 1012.9
20260506192524 68 140 2.0 4.0 0.39 1.01 1.01 90 1012.8
20260506192028 68 240 1.0 5.0 0.40 1.01 1.01 90 1013.2
20260506191548 68 359 2.0 9.0 0.41 1.01 1.01 89 1012.8
20260506191024 68 177 4.0 9.0 0.42 1.01 1.01 89 1012.4
20260506190524 68 158 2.0 8.0 0.43 1.00 1.00 89 1012.8
20260506190038 68 123 3.0 8.0 0.43 1.00 1.00 89 1012.2
20260506185524 68 159 5.0 8.0 0.39 0.96 0.96 89 1012.8
20260506185020 69 88 3.0 9.0 0.38 0.95 0.95 89 1012.7
20260506184557 69 100 5.0 9.0 0.36 0.93 0.93 88 1012.6
20260506184020 69 109 5.0 8.0 0.35 0.92 0.92 88 1013.0
20260506183523 70 119 1.0 3.0 0.26 0.83 0.83 87 1013.0
20260506183041 70 323 0.0 3.0 0.11 0.68 0.68 87 1013.6
20260506182527 70 0 1.0 4.0 0.05 0.62 0.62 87 1013.5
20260506182021 70 129 2.0 3.0 0.04 0.61 0.61 86 1013.2
20260506181542 70 107 0.0 4.0 0.03 0.60 0.60 86 1013.1
20260506181023 70 0 1.0 6.0 0.02 0.58 0.58 86 1013.3
20260506180523 70 111 1.0 6.0 0.00 0.57 0.57 85 1013.1
20260506180040 70 104 2.0 4.0 0.00 0.57 0.57 85 1013.5
20260506175522 71 156 2.0 5.0 0.00 0.57 0.57 84 1013.5
20260506175022 71 250 2.0 6.0 0.00 0.57 0.57 84 1013.5
20260506174545 71 69 3.0 10.0 0.00 0.57 0.57 84 1013.4
20260506174022 71 129 2.0 10.0 0.00 0.57 0.57 84 1013.3
20260506173520 71 206 4.0 10.0 0.00 0.57 0.57 84 1013.2
20260506173044 71 142 4.0 9.0 0.00 0.57 0.57 83 1013.3
20260506172520 71 166 2.0 9.0 0.00 0.57 0.57 84 1013.3
20260506172022 71 170 4.0 10.0 0.00 0.57 0.57 84 1013.1
20260506171555 71 179 4.0 12.0 0.00 0.57 0.57 84 1013.1
20260506171022 71 165 7.0 12.0 0.00 0.57 0.57 84 1013.1
20260506170526 71 160 4.0 11.0 0.00 0.57 0.57 84 1013.1
20260506170047 71 98 7.0 11.0 0.00 0.57 0.57 83 1012.9